This is the latest recevied weather packets stored in our database for station/object OZ1IEP-5. If no packets are shown the sender has not sent any weather packets the latest 10 day(s).
| Time | Temp. | Humidity | Pressure | Rain* | Wind** | Luminosity | Snow |
|---|---|---|---|---|---|---|---|
| 1787580607 | 20° C | 60% | 1019.9 hPa | 0 mm | - | 552 W/m² | - |
| 1787580009 | 20.56° C | 61% | 1019.9 hPa | 0 mm | - | 571 W/m² | - |
| 1787579406 | 20.56° C | 60% | 1019.9 hPa | 0 mm | - | 589 W/m² | - |
| 1787578806 | 20.56° C | 63% | 1019.9 hPa | 0 mm | - | 605 W/m² | - |
| 1787578209 | 20° C | 63% | 1019.9 hPa | 0 mm | - | 624 W/m² | - |
| 1787577606 | 20° C | 65% | 1020 hPa | 0 mm | - | 636 W/m² | - |
| 1787577006 | 20° C | 66% | 1020.1 hPa | 0 mm | - | 652 W/m² | - |
| 1787576409 | 20° C | 68% | 1020.1 hPa | 0 mm | - | 664 W/m² | - |
| 1787575806 | 19.44° C | 70% | 1020 hPa | 0 mm | - | 677 W/m² | - |
| 1787575206 | 19.44° C | 70% | 1020 hPa | 0 mm | - | 686 W/m² | - |
| 1787574609 | 19.44° C | 69% | 1020 hPa | 0 mm | - | 309 W/m² | - |
| 1787574006 | 19.44° C | 70% | 1019.9 hPa | 0 mm | - | 309 W/m² | - |
| 1787573406 | 19.44° C | 69% | 1019.9 hPa | 0 mm | - | 715 W/m² | - |
| 1787572808 | 19.44° C | 70% | 1020 hPa | 0 mm | - | 721 W/m² | - |
| 1787572206 | 19.44° C | 73% | 1020 hPa | 0 mm | - | 722 W/m² | - |
| 1787571606 | 18.89° C | 77% | 1019.9 hPa | 0 mm | - | 719 W/m² | - |
| 1787571010 | 18.89° C | 77% | 1019.9 hPa | 0 mm | - | 722 W/m² | - |
| 1787570406 | 18.89° C | 79% | 1019.9 hPa | 0 mm | - | 724 W/m² | - |
| 1787569806 | 18.89° C | 79% | 1019.9 hPa | 0 mm | - | 724 W/m² | - |
| 1787569208 | 18.89° C | 79% | 1019.9 hPa | 0 mm | - | 722 W/m² | - |
| 1787568606 | 18.89° C | 81% | 1019.9 hPa | 0 mm | - | 721 W/m² | - |
| 1787568006 | 18.33° C | 80% | 1019.9 hPa | 0 mm | - | 675 W/m² | - |
| 1787567408 | 18.33° C | 80% | 1019.9 hPa | 0 mm | - | 710 W/m² | - |
| 1787566807 | 18.33° C | 80% | 1019.9 hPa | 0 mm | - | 703 W/m² | - |
| 1787566206 | 18.33° C | 83% | 1019.9 hPa | 0 mm | - | 694 W/m² | - |
* Rain latest hour (hover to see other rain measurements)
** Current wind speed in m/s (hover to see current wind gust speed)